Wind_Speed
6 8 7 6 6 7 8 10 11 12 11 9 11 9 9 9 9 10 10 9 8 8 9 10 9 10 10 10 10 9 8 11 11 13 13 13 11 14 16 15 17 17 19
7 9 6 6 6 7 7 9 11 12 9 10 10 10 10 9 8 7 7 7 8 8 9 10 9 9 9 8 8 8 8 9 10 11 10 11 11 12 12 11 14 15 16
9 8 9 7 6 7 7 8 8 8 8 7 7 7 6 5 5 5 6 7 7 7 7 8 9 8 5 6 7 8 8 7 8 9 9 7 8 11 12 12 13 13 13
11 13 13 9 8 7 6 6 6 6 6 7 6 6 5 5 6 6 6 6 6 6 6 6 6 7 7 6 6 6 7 6 6 7 4 5 7 9 10 11 11 11 13
12 13 12 11 10 8 6 6 5 6 5 5 5 5 5 4 4 4 3 3 4 4 4 4 4 5 6 7 6 6 6 6 9 5 4 2 6 8 10 9 9 10 11
13 14 13 12 10 9 8 7 5 5 5 4 4 2 3 2 2 2 1 1 1 2 1 2 3 3 4 4 4 4 4 4 4 3 2 1 3 9 9 9 9 9 9
15 15 15 14 11 9 9 7 6 6 6 5 4 3 2 1 1 1 2 2 1 2 2 2 2 2 3 3 2 2 1 1 1 2 2 2 4 10 9 8 8 8 8
17 16 14 15 16 15 12 9 8 7 5 4 3 3 3 3 3 3 3 2 2 3 4 4 4 3 3 4 5 4 2 2 1 3 2 2 2 7 8 8 8 7 8
16 15 15 15 14 14 14 12 8 7 6 5 5 4 4 4 4 4 5 6 5 5 6 6 7 6 5 6 7 7 6 2 1 3 3 4 3 5 7 7 8 8 8
19 19 19 17 15 13 11 12 11 10 8 8 7 7 7 6 4 5 6 7 8 8 8 7 8 9 8 8 9 10 9 7 4 4 4 5 4 10 9 9 9 8 8
21 22 21 20 18 17 13 12 11 11 11 10 9 10 7 5 5 5 3 8 10 9 10 10 9 9 10 10 10 11 11 9 9 7 7 8 6 6 9 12 12 12 11
24 23 24 22 20 18 13 12 11 9 8 8 8 9 8 7 6 7 7 8 9 9 10 11 12 11 11 9 9 11 11 10 10 9 9 9 8 7 9 17 14 13 12
20 21 23 23 21 19 16 14 10 10 9 9 9 10 9 9 7 7 6 5 6 7 7 8 10 10 12 13 13 9 8 10 9 10 11 11 10 7 5 12 19 16 13
21 22 23 24 21 20 17 13 12 10 11 9 10 11 11 9 8 8 7 7 6 6 8 7 9 11 11 12 14 12 10 9 9 9 10 12 11 8 9 9 22 15 11
21 22 23 23 23 21 17 16 14 12 11 11 10 11 11 10 10 9 9 8 8 8 8 9 8 10 12 13 14 14 13 11 11 10 11 9 11 11 12 13 12 15 18
21 23 22 23 23 21 19 18 16 14 14 11 11 12 13 11 10 11 10 9 9 9 9 9 9 10 10 11 12 14 14 13 12 12 11 10 12 15 14 15 15 16 16
20 21 24 23 24 23 21 19 18 18 14 13 12 16 15 14 13 11 10 10 9 9 11 10 10 9 8 8 9 11 13 13 16 15 13 13 12 13 18 18 18 18 17
18 21 22 24 25 24 24 20 18 17 15 14 14 14 17 15 16 14 11 10 11 12 11 11 11 9 9 8 11 13 12 11 11 13 17 15 15 14 15 20 21 19 18
18 20 22 23 26 24 23 22 19 18 16 15 15 16 18 17 18 15 13 14 13 13 12 12 12 12 13 11 12 12 14 16 16 15 16 18 19 17 16 17 22 23 22
18 19 21 22 24 23 22 21 21 20 16 16 17 19 19 18 18 17 14 14 16 16 13 13 13 14 14 14 14 15 14 15 16 17 17 20 22 22 20 20 19 24 26
18 20 21 22 24 24 26 25 24 23 20 20 18 19 19 21 21 18 16 15 14 16 16 15 17 16 15 15 14 13 18 19 20 20 20 20 21 23 26 22 23 19 19
16 18 19 20 21 21 21 20 20 21 19 19 18 19 17 21 20 19 19 17 15 17 17 16 15 17 16 16 14 15 5 11 16 20 21 20 21 21 24 26 24 24 22
15 16 18 18 19 19 20 19 20 18 18 18 23 22 21 22 20 19 20 20 19 17 17 18 19 17 17 17 15 11 4 4 6 10 13 18 19 21 19 24 27 27 24
14 15 16 18 19 19 20 20 20 19 20 22 22 23 26 22 22 20 20 19 20 20 19 19 18 20 19 18 18 17 21 18 4 5 9 11 15 17 19 20 21 21 25
13 15 16 17 18 20 20 20 21 22 23 25 25 26 25 23 21 22 22 21 21 21 21 22 23 22 21 22 21 19 19 19 20 13 9 10 12 14 16 20 23 23 24
12 14 15 16 18 18 18 19 19 22 24 25 25 26 24 24 24 23 23 23 23 24 23 22 22 25 24 24 25 24 22 15 12 13 8 13 15 18 17 18 17 21 23
Wind_Direction
104 108 107 114 109 97 95 98 102 101 95 97 103 105 97 94 95 92 90 87 80 78 82 86 81 87 90 81 79 87 91 101 105 103 105 101 106 112 103 100 95 98 104
95 95 94 101 109 104 92 94 95 103 108 98 94 95 96 94 91 86 83 80 84 82 82 87 91 88 91 87 76 80 93 110 109 107 108 108 107 116 112 109 115 110 109
84 94 82 74 86 85 80 87 89 93 101 99 97 90 88 90 78 71 77 83 89 91 85 85 89 99 102 90 88 89 94 115 121 111 113 115 110 121 123 134 125 111 112
69 66 68 67 70 81 82 74 82 87 89 92 89 87 81 78 80 77 86 96 107 102 99 91 91 96 101 100 96 90 89 92 123 109 67 132 139 144 137 130 121 122 118
77 72 65 65 67 71 72 70 63 71 64 62 71 63 62 67 71 80 90 104 131 113 102 100 95 97 104 110 112 104 91 90 112 70 112 147 160 168 143 137 131 124 116
76 74 61 52 47 49 55 57 54 55 67 64 60 61 60 53 51 22 14 357 149 162 123 120 118 115 116 109 111 109 96 103 92 133 120 141 166 169 154 141 145 142 148
59 62 51 40 43 46 41 34 36 35 34 36 36 35 23 4 340 306 334 329 285 232 256 231 189 167 172 169 165 157 71 62 68 176 156 82 121 144 159 163 159 142 148
44 39 35 27 29 26 23 29 30 26 26 23 19 5 347 333 309 295 294 291 274 274 263 256 243 229 222 222 222 236 267 354 270 207 199 190 175 150 163 173 168 162 170
43 36 28 25 22 16 9 9 16 17 14 8 357 344 330 323 313 299 291 286 279 275 272 263 253 249 255 243 238 241 249 261 217 190 195 206 227 191 179 193 186 179 187
31 25 17 12 9 7 4 352 11 9 11 10 3 350 337 331 327 313 307 302 287 277 268 265 261 256 259 261 248 245 246 247 251 235 226 224 211 207 211 214 206 196 199
22 17 10 5 0 357 354 350 1 347 358 6 358 350 358 330 311 299 288 281 277 277 277 269 258 258 262 264 259 246 246 249 245 240 232 241 238 228 226 221 202 198 199
15 12 9 3 358 354 353 345 344 344 343 342 345 342 336 330 318 303 288 306 293 289 281 274 266 257 256 250 262 255 245 242 247 241 244 242 256 263 267 220 202 202 205
16 14 10 6 2 358 350 349 344 339 340 341 345 344 333 325 323 315 308 296 296 287 286 275 268 255 251 247 248 239 243 246 247 245 247 251 251 244 248 202 202 203 209
20 15 10 9 8 4 3 357 349 344 342 344 341 347 342 334 326 317 312 309 296 279 279 274 271 261 257 255 254 255 244 243 248 253 254 257 244 230 227 212 212 205 219
25 19 15 13 13 9 12 8 6 0 354 347 353 356 354 343 332 327 318 311 304 296 280 274 278 278 268 262 254 249 255 246 246 247 241 265 246 230 224 216 196 196 216
23 21 18 18 16 15 16 15 17 10 6 8 8 8 6 356 342 330 319 311 307 301 295 288 280 275 274 271 269 260 247 254 249 245 250 256 262 237 231 226 218 211 213
25 20 20 18 16 19 17 19 20 19 12 15 14 15 9 6 353 338 326 317 313 310 302 293 291 291 279 263 256 273 266 258 259 247 245 245 256 253 237 235 229 231 225
31 26 21 18 18 19 19 18 15 14 15 17 15 13 9 5 357 346 332 323 319 312 302 295 290 291 285 277 271 263 267 266 260 264 255 249 243 240 247 236 235 234 234
30 27 25 20 17 16 16 17 14 11 10 7 8 5 2 2 360 355 341 332 324 315 305 299 292 285 285 276 267 260 262 263 264 261 249 248 247 242 236 244 238 235 233
31 28 24 19 17 15 13 12 11 8 5 5 0 358 355 353 353 353 345 337 331 321 310 305 295 288 284 285 283 284 273 262 258 256 256 247 243 241 239 236 244 238 235
28 24 20 17 13 13 10 4 0 356 352 352 349 349 349 349 347 344 339 336 330 326 315 309 303 294 287 283 283 286 275 262 257 251 249 248 244 240 237 235 233 236 239
22 17 14 12 10 8 4 357 351 343 339 336 337 340 339 340 339 336 334 328 324 321 311 304 299 295 291 286 288 290 284 273 257 241 246 245 247 242 239 237 235 232 231
14 9 6 3 1 359 356 351 345 343 337 336 333 331 329 329 326 324 324 322 319 315 307 301 298 287 284 282 273 261 283 240 304 260 231 243 246 247 240 242 240 236 234
5 359 356 354 352 349 348 345 342 335 329 325 321 319 319 319 318 315 314 314 312 313 305 301 292 293 280 269 270 267 262 274 286 294 217 240 245 248 247 244 238 236 237
355 350 345 342 342 339 337 335 330 324 318 316 316 315 314 312 310 309 308 306 304 304 300 298 295 287 283 279 257 257 262 261 253 257 267 263 235 232 243 243 242 241 238
342 338 335 331 329 327 324 321 316 311 310 307 306 305 304 306 307 304 302 300 299 296 295 295 292 289 289 279 281 261 247 244 239 236 248 256 263 262 230 231 236 235 233
Height
815 816 817 818 818 818 819 820 820 821 821 822 822 823 823 824 824 825 825 825 825 825 824 824 824 824 825 825 824 824 824 824 824 825 825 825 826 826 826 828 827 827 828
816 817 819 820 821 822 823 823 823 824 824 824 825 825 825 826 826 826 827 827 827 827 827 826 827 826 827 827 827 826 827 827 827 827 828 828 828 829 829 829 829 830 830
818 820 822 823 824 824 825 826 826 827 826 827 827 828 828 828 828 828 828 829 829 829 829 828 828 828 828 829 829 829 829 829 829 830 830 831 831 831 831 832 831 832 832
822 822 825 825 826 826 827 828 828 828 829 828 829 829 830 829 829 830 830 830 831 830 830 830 830 830 830 830 830 831 831 831 831 832 832 832 833 833 833 833 833 834 834
825 826 827 828 828 829 829 829 830 830 830 830 831 831 831 831 831 832 832 832 832 831 831 831 831 832 832 832 832 832 832 833 833 833 834 833 834 834 835 835 835 836 837
827 828 829 830 831 831 832 831 832 830 831 831 831 832 832 832 833 833 833 833 833 833 833 833 833 833 833 833 833 833 833 834 834 835 835 835 834 835 836 837 837 838 838
829 831 832 833 833 833 832 833 832 833 832 831 832 832 832 833 833 834 834 834 834 834 834 835 834 834 834 834 834 834 834 834 834 836 836 836 835 836 838 838 838 839 840
834 834 835 835 835 835 834 833 833 833 832 832 832 832 833 833 834 834 834 834 835 835 835 835 835 835 835 835 835 835 835 835 835 836 836 836 836 837 838 839 840 840 841
838 838 837 837 837 837 836 835 835 834 834 833 833 832 832 832 833 833 834 834 834 834 834 834 835 835 835 835 836 836 836 836 835 836 836 837 836 837 838 839 840 841 842
839 839 839 838 838 838 838 837 835 834 834 833 832 832 832 831 831 831 832 833 833 833 834 834 834 834 835 835 835 835 835 836 835 836 836 836 836 837 838 838 839 842 843
842 841 840 839 838 837 838 837 836 835 835 834 833 832 832 832 832 832 831 831 832 832 833 833 833 833 833 834 834 834 834 835 835 835 835 835 836 836 836 837 838 840 842
846 845 843 842 839 838 838 837 837 836 836 835 834 834 833 833 832 831 830 830 830 830 831 831 831 832 832 833 832 832 833 834 834 834 834 834 835 834 834 834 837 838 840
854 851 849 846 843 841 839 839 838 838 837 836 835 834 834 833 831 831 830 829 829 828 828 830 830 830 831 831 831 831 832 833 833 833 833 833 834 834 833 833 835 837 840
857 855 852 849 846 844 842 841 840 839 838 837 836 835 834 833 832 831 830 830 828 828 827 827 828 828 828 829 829 829 830 831 831 831 832 831 832 832 832 832 834 836 840
861 859 857 853 849 847 845 843 842 841 840 839 837 836 835 834 833 832 831 830 828 828 826 825 825 826 827 826 827 827 827 828 830 830 830 830 830 831 831 832 834 836 838
866 863 860 857 854 852 849 847 845 843 841 841 839 838 837 836 835 833 831 830 829 828 827 825 824 823 823 824 824 824 825 825 826 827 828 828 828 829 829 831 832 834 836
871 868 864 861 858 854 852 850 848 847 844 842 840 839 837 837 835 834 832 830 828 827 826 824 823 822 821 821 821 822 823 823 823 823 825 826 826 826 827 828 829 830 831
874 871 869 866 862 858 855 854 852 850 848 846 845 843 840 838 836 834 832 831 829 827 825 824 822 821 821 819 818 818 818 819 820 821 821 823 823 824 824 825 826 828 830
877 875 871 869 866 863 860 857 855 853 852 850 847 845 843 840 838 835 833 831 829 826 825 823 821 820 818 817 816 816 815 815 816 816 816 818 820 821 821 821 823 825 827
880 878 876 874 869 866 864 861 859 856 854 852 850 847 845 841 839 836 834 832 830 827 824 822 820 818 817 815 814 812 812 811 811 811 812 812 813 815 817 818 819 820 822
882 880 878 875 873 869 866 864 861 859 856 854 851 849 846 843 839 837 835 832 830 828 825 823 820 817 815 814 812 811 809 807 806 806 806 807 807 808 810 812 814 815 816
883 882 880 878 875 873 870 868 867 862 859 856 852 849 847 843 841 838 835 832 830 827 825 822 820 817 814 813 811 809 805 802 799 798 800 801 802 803 803 805 808 810 811
885 883 881 879 878 876 872 869 866 862 859 856 853 849 845 843 840 838 835 831 828 826 823 821 818 816 813 811 810 809 803 798 795 793 794 796 797 798 798 799 801 803 805
885 884 882 880 878 876 873 869 866 863 859 855 852 848 844 841 838 836 833 830 827 823 822 819 817 813 811 807 807 805 804 802 800 794 791 792 792 793 794 795 796 797 798
885 884 882 880 878 876 873 870 866 862 858 853 849 845 842 838 836 833 830 827 825 822 819 817 814 811 808 805 801 800 799 798 798 797 791 790 789 789 790 790 791 792 793
886 884 882 880 877 875 872 869 866 862 856 852 847 843 839 835 832 830 827 824 821 818 815 813 810 807 804 801 798 794 792 791 790 791 789 788 786 785 783 785 786 786 788